Miscellaneous Local Product
Issued by NWS Hastings, NE

Home | Current Version | Previous Version | Text Only | Print | Product List | Glossary On
Versions: 1 2 3 4 5 6 7 8 9 10 11 12 13 14 15 16 17 18 19 20 21 22 23 24 25 26 27 28 29 30 31 32 33 34 35 36 37 38 39 40 41 42 43 44 45 46 47 48 49 50
000
AXUS43 KGID 020910
MISGRI

GID CWA HOURLY WEATHER ROUNDUP
NATIONAL WEATHER SERVICE HASTINGS NE
400 AM CDT THU OCT 02 2014

NOTE: "FAIR" INDICATES FEW OR NO CLOUDS BELOW 12,000 FEET WITH NO
SIGNIFICANT WEATHER AND/OR OBSTRUCTIONS TO VISIBILITY.

...SOUTH CENTRAL NEBRASKA...

CITY           SKY/WX    TMP DP  RH WIND       PRES   REMARKS
GRAND ISLAND   CLOUDY    56  54  93 N18G26    29.84F
HASTINGS       CLOUDY    55  51  86 N22       29.83S
KEARNEY        CLOUDY    54  48  82 NW16      29.88R
ORD            LGT RAIN  52  50  93 N13       29.88F
YORK           LGT RAIN  57  55  94 N12G20    29.81F
AURORA         CLOUDY    57  55  95 N17G26    29.81F
LEXINGTON      LGT RAIN  53  51  94 N8        29.95R
HOLDREGE       CLOUDY    53  50  89 NW13G18   29.91R
HEBRON         CLOUDY    61  57  86 N25G33    29.77R VSB 1

...NEBRASKA PANHANDLE...

CITY           SKY/WX    TMP DP  RH WIND       PRES   REMARKS
CHADRON        CLEAR     42  40  92 SW8       30.03S
ALLIANCE       CLOUDY    44  44 100 W7        30.03R
SCOTTSBLUFF    PTCLDY    40  39  97 NW6       30.06F
SIDNEY         CLOUDY    45  42  89 NW10      30.05S

...WESTERN AND NORTH CENTRAL NEBRASKA...

CITY           SKY/WX    TMP DP  RH WIND       PRES   REMARKS
VALENTINE      CLOUDY    49  47  93 W3        29.96F
AINSWORTH      CLOUDY    49  49  99 CALM      29.95F
ONEILL         RAIN      52  52  98 N12G17    29.93F
BROKEN BOW     LGT RAIN  52  50  93 N14G25    29.91R
IMPERIAL       CLOUDY    50  47  89 NW9       29.99R
NORTH PLATTE   LGT RAIN  50  48  93 N7        29.94F
MCCOOK         CLOUDY    52  49  89 NE16      29.92S

...EASTERN NEBRASKA...

CITY           SKY/WX    TMP DP  RH WIND       PRES   REMARKS
NORFOLK        LGT RAIN  56  53  90 NW17      29.86R
SO SIOUX CITY  CLOUDY    58  55  90 NW8       29.78F
TEKAMAH        MOCLDY    63  61  93 N3        29.76F FOG
COLUMBUS       CLOUDY    59  52  77 NW20G25   29.85R
ALBION         HVY RAIN  53  51  92 N15       29.90F
OMAHA EPPLEY   FOG       64  63  96 SE5       29.77R VSB 1/4
OFFUTT AFB     FOG       64  64 100 E5        29.75F VSB 3/4
MILLARD        FOG       65  64  97 SE3       29.76S VSB 1/4
LINCOLN        CLOUDY    64  61  90 N7        29.77S FOG
NEBRASKA CITY  CLOUDY    66  66 100 CALM      29.74F FOG
BEATRICE       CLOUDY    65  64  97 E5        29.72F FOG
FALLS CITY     CLOUDY    65  64  97 E5        29.72F

...NORTHERN KANSAS...

CITY           SKY/WX    TMP DP  RH WIND       PRES   REMARKS
GOODLAND       CLOUDY    48  45  89 NW22      29.99R
HILL CITY      CLOUDY    56  48  74 N24G33    29.84F
NORTON         LGT RAIN  54  48  82 N16G26    29.87
PHILLIPSBURG   MOCLDY    59  52  77 NW20G26   29.86R
SMITH CENTER   MOCLDY    57  52  82 N15G25    29.81F
BELOIT         CLOUDY    63  61  94 N13       29.74F
RUSSELL        CLOUDY    60  55  83 NW14      29.77S
CONCORDIA      MOCLDY    62  62 100 NW12      29.75R
SALINA         CLEAR     63  61  93 CALM      29.68F
TOPEKA         MOCLDY    66  66 100 E6        29.71S FOG



USA.gov is the U.S. government's official web portal to all federal, state and local government web resources and services.